Home   Weather   New York   Past weeks

Flag for USA Past Weather in New York, New York, USA — Yesterday and Last 2 Weeks

Now
62 °F

Passing clouds.


Feels Like: 62 °F
Forecast: 51 / 64 °F
Wind: 9 mph from Southwest

Location: New York City - Central Park

Current Time: Feb 24, 2017 at 1:22:11 am

Latest Report: Feb 24, 2017 at 12:51 am


Visibility: 10 mi

Pressure: 29.90 "Hg

Humidity: 65%

Dew Point: 50 °F

Location of New YorkLocation

Past Weather in New York — Graph

°F

New York Temperature Yesterday

Maximum temperature yesterday: 65 °F (at 3:51 pm)
Minimum temperature yesterday: 44 °F (at 6:51 am)
Average temperature yesterday: 55 °F

High & Low Weather Summary for the Past Weeks

 TemperatureHumidityPressure
High65 °F (Feb 19, 2:51 pm)100% (Feb 12, 2:51 pm)30.38 "Hg (Feb 12, 2:51 pm)
Low19 °F (Feb 9, 10:51 pm)17% (Feb 17, 12:51 pm)29.30 "Hg (Feb 15, 3:51 pm)
Average40 °F58%29.87 "Hg
* Reported Feb 8 11:51 pm — Feb 23 11:51 pm, New York, Weather by CustomWeather, © 2017

Note: Actual official high and low records may vary slightly from our data, if they occured in-between our weather recording intervals... More about our weather records

Advertising

New York Weather History for the Previous 24 Hours

Scroll right to see more
 ConditionsComfort  
Time TempWeatherWind HumidityBarometerVisibility
11:51 pm
Thu, Feb 23
63 °FPassing clouds.6 mph65%29.89 "Hg10 mi
10:51 pm64 °FClear.5 mph65%29.88 "Hg10 mi
9:51 pm63 °FPassing clouds.5 mph68%29.88 "Hg10 mi
8:51 pm56 °FClear.No wind77%29.88 "Hg9 mi
7:51 pm58 °FPassing clouds.3 mph72%29.86 "Hg9 mi
6:51 pm59 °FClear.3 mph72%29.86 "Hg10 mi
5:51 pm61 °FClear.5 mph70%29.83 "Hg10 mi
4:51 pm61 °FSunny.7 mph70%29.82 "Hg8 mi
3:51 pm65 °FSunny.5 mph61%29.80 "Hg8 mi
2:51 pm64 °FSunny.3 mph63%29.80 "Hg8 mi
1:51 pm60 °FSunny.6 mph69%29.82 "Hg6 mi
12:51 pm57 °FScattered clouds.9 mph74%29.84 "Hg6 mi
11:51 am53 °FLow clouds.9 mph83%29.87 "Hg6 mi
10:51 am54 °FLow clouds.No wind83%29.88 "Hg10 mi
9:51 am52 °FLow clouds.5 mph83%29.90 "Hg7 mi
8:51 am49 °FFog.6 mph86%29.91 "Hg3 mi
8:17 am48 °FFog.3 mph89%29.93 "Hg3 mi
7:51 am48 °FSunny.No wind80%29.90 "Hg7 mi
6:51 am44 °FSunny.No wind85%29.89 "Hg7 mi
5:51 am45 °FClear.3 mph82%29.88 "Hg8 mi
4:51 am46 °FClear.3 mph83%29.87 "Hg9 mi
3:51 am47 °FClear.3 mph80%29.87 "Hg10 mi
2:51 am49 °FClear.No wind74%29.88 "Hg10 mi
1:51 am50 °FClear.No wind74%29.88 "Hg10 mi
Weather by CustomWeather, © 2017

See weather overviewHow to use our weather pages